Wind_Speed
2 2 6 8 7 4 4 4 8 6 5 4 10 14 21 9 11 15 12 13 17 18 13 27 26 21 17 16 12 7 3 2 5 7 13 13 15 17 17 16 21 23 25 27
3 8 6 4 4 5 4 3 8 8 1 6 11 17 16 17 11 13 16 17 20 16 13 22 29 23 20 17 12 8 3 4 5 7 10 10 16 12 18 17 23 23 26 26
7 3 6 6 5 5 4 5 5 8 6 5 8 9 6 6 7 7 10 12 16 20 19 13 20 26 21 17 14 10 4 4 5 8 11 14 13 12 9 21 26 26 27 26
7 2 7 4 6 8 4 5 3 4 5 4 5 10 4 7 11 6 9 11 14 17 16 15 21 24 23 18 14 11 6 5 6 8 11 12 13 15 18 24 26 28 27 26
8 8 6 6 7 8 7 3 3 1 3 3 4 5 7 3 8 18 9 13 14 16 20 19 21 25 25 18 15 11 7 6 6 8 10 13 16 18 22 24 27 28 28 28
6 1 6 6 2 3 4 2 4 4 1 2 6 7 4 6 8 7 5 6 10 12 16 15 24 30 26 19 14 12 7 6 7 9 11 13 16 19 24 28 29 29 30 30
1 5 2 3 4 2 3 5 3 5 2 8 4 3 12 9 11 10 10 5 8 11 14 15 17 20 26 21 16 12 8 8 8 10 12 14 16 19 22 26 26 28 27 26
5 9 9 6 7 7 6 8 6 8 4 9 2 9 7 11 9 6 5 8 8 10 13 17 17 22 26 23 18 14 7 7 9 11 13 15 17 20 23 26 28 29 29 29
7 8 2 1 2 4 5 6 3 5 2 3 5 8 7 10 9 8 8 7 9 10 14 16 16 21 26 22 18 13 7 7 8 11 13 17 18 21 24 28 29 28 30 33
4 5 2 3 3 2 4 3 4 2 3 6 10 14 13 13 9 10 8 10 9 9 11 13 14 22 26 21 17 10 7 8 9 11 14 16 20 22 25 27 29 29 32 33
5 5 3 3 9 11 3 3 1 2 5 6 4 13 5 8 10 10 11 11 10 12 14 14 13 23 27 21 17 10 7 7 9 11 15 18 21 24 26 28 29 29 30 33
8 5 9 15 1 2 2 8 12 7 7 3 3 22 1 6 9 8 9 11 8 10 12 14 13 19 23 23 18 12 7 6 8 12 15 19 21 23 26 27 28 29 30 31
10 4 8 7 2 2 7 8 7 1 2 12 6 20 5 6 9 8 10 9 8 9 10 11 12 12 20 23 17 12 7 7 9 12 15 19 22 24 24 27 28 29 30 30
17 8 11 19 12 6 6 11 15 22 12 17 30 29 42 21 25 28 16 10 10 13 14 15 13 13 18 21 17 13 9 7 9 11 15 18 21 22 25 27 27 27 28 31
10 15 18 22 28 6 8 13 16 20 29 18 34 27 39 27 30 29 18 9 9 11 13 17 16 13 16 20 17 11 6 6 9 12 16 19 20 22 23 24 25 25 26 28
2 13 12 24 20 8 9 31 18 24 26 24 29 37 31 31 28 27 27 11 10 13 17 17 16 15 12 14 13 8 6 5 9 12 14 18 19 20 22 22 26 26 26 27
8 5 3 25 4 7 8 30 30 34 26 26 26 41 32 30 26 25 19 10 12 15 15 16 18 16 16 16 13 8 1 6 8 11 16 19 22 24 24 26 27 27 28 28
9 8 9 15 4 15 32 21 10 20 30 26 29 31 31 28 25 6 10 11 13 12 14 15 14 15 19 18 10 5 1 4 7 12 16 20 20 25 25 27 26 27 27 28
19 11 12 13 16 25 26 12 8 10 25 24 19 29 29 25 6 24 11 13 13 15 16 14 21 24 23 18 12 6 2 4 8 11 14 17 22 28 28 31 27 28 29 30
20 22 19 15 16 23 33 15 7 4 21 37 23 25 22 6 7 19 8 9 8 11 14 19 25 26 24 16 11 8 4 3 5 9 14 18 21 25 27 28 30 28 27 29
5 10 22 23 23 17 25 9 6 10 39 5 20 22 15 11 12 2 8 7 11 14 19 24 24 21 20 16 12 9 5 1 3 8 13 17 19 22 24 27 30 27 28 28
17 10 9 10 14 23 6 7 20 35 36 15 7 7 12 13 6 6 9 13 15 17 18 22 22 19 19 16 14 11 8 2 4 9 12 15 17 20 23 26 29 25 26 27
18 18 18 14 8 7 11 27 34 35 30 21 6 5 12 11 9 12 11 14 15 16 16 21 23 21 16 15 14 12 7 3 4 8 12 15 18 21 22 23 27 23 22 24
15 19 19 22 17 21 20 25 27 28 29 22 8 10 15 11 15 14 15 15 15 14 15 21 21 16 14 14 10 8 6 4 6 8 11 14 17 21 22 21 18 21 22 24
19 13 21 22 24 24 26 31 30 18 7 12 9 11 18 13 15 17 14 16 15 14 20 22 20 17 16 16 12 8 6 5 7 8 9 13 13 16 19 21 18 18 20 25
17 23 17 18 30 20 32 33 24 18 23 22 17 10 13 17 18 18 16 17 18 16 22 19 18 19 18 16 13 9 6 5 7 9 10 12 13 16 13 15 24 18 19 23
Wind_Direction
8 91 214 226 202 177 165 199 242 252 242 246 250 251 273 255 218 234 220 207 211 212 197 194 188 183 178 181 184 181 189 264 284 322 341 337 329 333 336 340 348 347 344 342
41 236 202 126 145 170 165 225 263 279 300 192 267 259 263 257 244 223 220 215 215 202 189 191 189 185 185 188 188 194 222 266 279 309 324 324 323 319 331 333 340 341 337 336
177 205 116 151 171 173 212 196 236 240 326 255 298 267 242 277 266 241 221 221 214 206 198 190 190 192 190 189 195 203 228 288 279 296 317 325 334 323 320 327 335 335 331 330
231 198 173 171 214 155 244 211 234 286 3 258 25 291 251 247 276 246 235 212 212 203 200 189 189 193 192 194 195 205 228 286 280 293 314 327 324 316 321 326 327 326 328 327
240 171 177 191 215 166 225 140 168 146 221 346 236 275 262 18 262 266 253 226 216 203 193 189 189 190 195 193 196 204 233 291 288 300 317 324 321 324 324 324 324 323 325 324
248 313 173 206 89 159 126 97 61 59 71 289 222 192 216 185 209 253 247 231 207 198 199 193 184 189 193 190 196 204 240 288 298 311 323 327 319 327 326 329 325 321 318 319
274 211 178 156 116 62 106 76 316 324 348 239 165 217 254 229 221 221 251 283 222 192 187 184 181 183 186 190 197 205 245 287 306 320 326 325 321 325 324 324 317 313 307 300
185 273 178 177 195 181 176 170 169 233 233 280 344 246 264 226 253 253 241 255 236 189 192 196 187 182 185 193 197 202 241 284 309 321 325 325 328 331 324 320 316 304 298 301
176 262 107 167 141 142 183 189 168 100 113 339 240 273 280 261 275 262 258 251 235 198 196 194 182 183 189 192 197 205 247 281 309 322 326 329 331 330 324 323 317 304 307 306
221 303 171 158 136 44 177 170 78 11 257 264 267 276 253 242 237 241 238 235 233 201 199 193 184 183 191 193 191 207 251 292 310 323 329 325 330 331 327 322 316 311 307 302
145 156 224 124 212 168 132 213 129 163 163 204 275 268 203 221 189 221 224 226 215 200 200 195 187 180 188 188 189 211 244 282 310 324 323 329 333 330 325 318 315 310 304 301
202 159 233 233 211 333 221 199 176 202 228 252 141 271 188 201 207 220 227 233 218 202 194 192 184 168 178 184 192 211 238 283 310 312 324 331 330 329 324 317 313 310 302 298
177 218 248 260 90 12 221 199 222 237 143 207 180 253 108 204 242 223 234 227 218 198 182 182 173 181 179 183 194 208 230 266 298 314 330 330 331 331 319 314 312 309 301 298
162 179 198 233 231 133 185 217 218 220 227 233 232 256 268 265 277 273 264 228 217 203 192 191 187 183 175 182 192 206 222 255 304 325 333 329 332 323 316 315 310 305 306 305
174 229 227 245 255 181 211 236 217 216 228 219 250 244 254 264 265 274 279 248 207 193 194 196 190 176 173 180 191 201 233 281 319 334 334 337 324 319 317 313 310 314 314 309
218 247 246 254 255 197 249 255 240 231 237 243 252 259 260 268 278 282 278 259 213 203 205 198 187 170 174 173 182 192 233 316 339 338 340 326 322 321 321 319 325 322 318 312
175 195 205 251 196 118 270 247 240 255 240 232 244 252 273 271 267 264 268 210 217 210 200 185 181 168 161 161 178 186 299 338 347 337 331 335 330 329 330 331 329 323 318 315
208 211 228 248 92 228 250 269 206 231 251 239 245 261 260 263 272 246 224 210 212 197 183 181 169 140 143 159 150 146 39 350 340 335 335 338 335 334 332 331 331 322 319 316
229 212 237 230 232 252 284 220 160 200 265 247 219 244 254 259 336 280 214 210 207 187 179 169 150 138 149 151 149 133 98 6 352 341 337 335 338 339 336 334 329 323 317 314
227 231 234 233 239 243 248 266 151 104 270 260 221 240 243 141 240 259 166 171 152 141 143 140 134 135 138 142 138 124 96 28 341 341 341 344 341 338 334 333 326 317 312 311
171 210 224 232 243 247 253 141 138 192 251 156 209 224 227 195 218 138 113 104 129 134 134 128 128 129 136 141 141 130 136 181 326 348 349 347 342 338 337 331 322 319 317 315
215 189 215 231 246 254 177 121 210 240 257 258 210 190 193 214 151 144 144 142 136 132 131 131 127 130 142 150 149 151 169 173 4 2 359 351 346 346 339 333 326 325 319 318
234 211 221 200 206 208 193 218 225 239 243 241 184 196 204 181 182 160 153 150 147 144 141 142 136 135 149 156 161 164 158 113 32 12 11 359 353 350 344 334 322 325 325 325
222 228 228 240 232 233 225 228 234 231 233 237 204 183 182 189 170 165 155 153 148 149 146 143 139 142 148 161 157 147 131 90 49 30 21 6 355 350 345 335 329 325 329 329
222 201 223 242 244 245 249 244 239 235 230 210 190 189 196 179 182 162 159 159 156 152 148 152 152 150 152 162 153 144 124 90 69 51 32 7 359 348 340 341 334 334 335 339
221 225 220 229 229 225 241 249 246 221 219 212 197 195 200 192 174 164 163 161 156 153 150 151 148 146 155 157 148 142 130 104 76 64 33 10 356 351 337 329 336 358 354 351
Height
806 812 815 806 813 810 813 821 827 817 807 806 804 797 778 779 792 789 789 792 792 791 797 800 803 806 809 811 813 814 815 815 816 815 813 811 809 805 803 801 796 793 791 788
812 814 800 801 810 812 815 820 824 815 807 812 804 794 782 768 770 771 774 780 779 785 788 790 796 801 804 807 809 810 810 811 810 810 810 808 805 802 799 798 794 790 789 785
811 795 799 801 809 812 816 822 817 814 814 811 811 786 782 762 761 760 764 763 771 775 782 791 795 796 798 800 802 804 805 806 806 806 805 802 800 798 794 792 787 785 784 781
804 795 798 803 806 810 814 807 809 812 818 820 805 781 773 760 757 757 756 762 761 767 773 779 786 789 791 794 797 799 801 801 801 801 798 797 795 793 787 786 783 780 778 774
790 799 801 803 800 802 803 803 806 811 818 826 816 827 784 772 762 743 740 750 753 757 761 767 774 781 786 789 792 795 797 797 796 795 793 790 789 786 781 778 775 774 769 767
796 793 794 792 798 799 804 804 819 835 834 840 794 802 778 770 754 744 737 744 750 755 758 763 768 776 781 785 788 790 791 792 792 789 788 785 784 779 776 772 771 768 765 761
790 792 790 791 795 803 804 811 827 830 845 799 803 814 739 742 738 732 731 739 745 748 755 759 762 768 773 777 782 785 787 787 786 785 782 780 779 774 771 769 766 761 757 754
795 786 790 789 785 792 809 806 819 833 836 784 829 780 730 731 731 738 741 741 740 745 748 750 754 760 765 771 775 777 779 781 780 779 777 775 774 771 768 765 763 760 754 748
795 789 786 786 785 787 802 804 797 823 894 855 769 750 736 728 730 734 737 737 737 739 741 743 750 756 762 765 770 774 776 774 775 774 773 771 769 766 763 761 757 753 748 740
760 777 784 790 788 795 794 796 809 820 816 850 762 740 718 707 717 716 729 731 730 735 737 739 741 748 755 761 765 769 771 771 770 769 769 767 763 760 758 753 749 744 739 736
763 767 779 790 790 785 800 797 797 799 813 805 814 699 701 699 703 705 714 716 719 724 728 733 736 740 748 755 760 763 764 765 766 766 764 760 757 754 751 747 742 738 733 728
761 767 769 760 775 780 773 775 771 778 783 813 805 707 689 694 697 703 709 710 712 714 719 724 730 736 743 746 752 755 758 759 760 759 757 753 748 746 745 742 739 735 730 724
754 765 763 754 773 778 777 771 766 763 779 767 781 691 695 700 702 705 705 706 709 711 715 722 727 729 732 739 745 748 750 751 751 750 746 745 745 742 741 736 733 727 724 718
726 745 741 728 724 744 766 758 753 742 741 729 712 693 648 681 678 668 687 699 699 701 706 712 719 722 726 732 738 740 742 742 744 742 740 742 740 738 734 729 725 721 716 710
730 726 719 713 702 738 732 729 731 742 718 722 679 698 651 673 666 660 666 675 690 696 701 702 708 715 720 723 729 735 739 741 740 740 742 739 735 732 727 724 720 712 706 703
744 721 722 716 709 732 733 700 712 718 704 709 693 670 648 653 655 657 656 668 680 685 686 690 697 706 716 725 731 736 739 739 740 743 742 739 738 732 725 717 713 708 702 696
746 738 754 710 729 742 740 673 685 674 677 685 690 640 647 652 653 647 653 665 667 670 675 684 692 698 709 720 728 733 737 739 738 738 740 739 738 731 723 714 707 704 698 691
730 732 722 708 752 720 645 657 670 673 653 654 653 645 640 638 633 650 650 651 657 662 670 679 688 697 708 716 725 731 734 735 735 738 738 735 730 726 719 711 701 700 694 686
702 711 709 704 694 670 663 658 672 676 643 623 652 635 630 631 655 629 639 639 642 649 657 669 680 690 702 712 718 723 729 732 736 737 734 732 726 722 716 710 700 693 690 682
688 691 686 691 684 672 631 635 670 668 647 571 619 617 622 650 652 612 625 631 640 648 657 667 677 688 700 709 714 720 725 729 730 729 727 725 723 718 715 708 700 692 687 678
696 688 678 667 653 644 631 667 665 669 577 593 597 601 609 630 610 619 629 636 641 649 660 668 678 686 696 704 709 715 719 721 719 717 716 716 716 713 710 705 699 688 682 674
642 662 661 666 652 637 628 659 641 581 573 594 606 609 613 609 623 627 632 639 645 652 664 669 675 685 692 698 701 707 711 712 712 709 709 710 709 706 705 703 695 684 679 671
614 599 594 611 596 596 605 585 575 573 573 580 598 602 601 610 616 622 630 640 645 651 658 667 672 682 690 693 696 702 704 704 703 705 705 707 705 703 702 699 693 683 677 669
586 579 583 583 576 576 577 567 558 556 565 570 585 591 596 600 606 613 624 634 641 650 658 663 674 682 690 696 699 701 701 700 699 702 702 704 702 700 699 698 691 683 677 668
566 566 570 563 558 557 554 546 546 564 571 572 574 581 583 591 601 603 616 629 637 645 654 661 668 677 687 693 695 698 699 699 698 697 699 701 700 700 697 692 689 683 678 671
551 545 551 535 532 534 529 519 534 547 552 556 565 573 575 582 588 596 607 619 627 639 650 660 667 675 684 690 692 695 696 698 696 696 698 699 698 698 696 693 686 680 675 669